Location: Madrid
(40.4167°N, 3.7036°W)
Time: 01:26:46
(UTC+00:00)

ISS - Pass Details

Date: 08 May 2026
Orbit: 414 x 424 km, 51.6° (Epoch: 15 May)

Event Time Altitude Azimuth Distance (km) Brightness Sun altitude
Rises 22:01:06 0° 264° (W) 2,344 0.4 -24.8°
Reaches altitude 10° 22:03:26 10° 278° (W) 1,484 -0.5 -25.1°
Maximum altitude 22:06:15 25° 336° (NNW) 881 -1.5 -25.4°
Enters shadow 22:08:13 15° 24° (NNE) 1,215 -1.1 -25.6°
